Home   Weather   Waynesville   Past weeks
Flag for USA

Past Weather in Waynesville, North Carolina, USA — Yesterday and Last 2 Weeks

Now
80 °F

Sunny.


Feels Like: 82 °F
Forecast: 82 / 64 °F
Wind: 6 mph from South

Location: Asheville Regional Airport

Current Time: Jun 24, 2019 at 11:39:48 am

Latest Report: Jun 24, 2019 at 10:54 am


Visibility: 10 mi

Pressure: 29.94 "Hg (27.26 "Hg at 821m altitude)

Humidity: 64%

Dew Point: 67 °F

Location of WaynesvilleLocation

Past Weather in Waynesville — Graph

°F

Waynesville Temperature Yesterday

Maximum temperature yesterday: 82 °F (at 1:54 pm)
Minimum temperature yesterday: 65 °F (at 6:24 am)
Average temperature yesterday: 73 °F

High & Low Weather Summary for the Past Weeks

 TemperatureHumidityPressure
High86 °F (Jun 16, 3:54 pm)97% (Jun 24, 5:54 am)30.23 "Hg (Jun 24, 5:54 am)
Low51 °F (Jun 15, 6:54 am)19% (Jun 14, 4:54 pm)29.73 "Hg (Jun 20, 4:54 am)
Average70 °F73%30.00 "Hg
* Reported Jun 9 9:01 am — Jun 24 9:54 am, Waynesville. Weather by CustomWeather, © 2019

Note: Actual official high and low records may vary slightly from our data, if they occured in-between our weather recording intervals... More about our weather records

Advertising

Waynesville Weather History for the Previous 24 Hours

Scroll right to see more
 ConditionsComfort  
Time TempWeatherWind HumidityBarometerVisibility
9:54 am
Mon, Jun 24
75 °FSunny.No wind74%29.96 "Hg10 mi
9:15 am70 °FFog.No wind87%30.05 "Hg6 mi
8:13 am67 °FFog.3 mph93%30.05 "Hg1 mi
8:05 am67 °FFog.No wind93%30.05 "Hg1 mi
7:26 am67 °FFog.5 mph93%30.04 "Hg0 mi
7:23 am67 °FFog.3 mph93%30.04 "Hg1 mi
6:54 am67 °FFog.3 mph93%29.96 "Hg0 mi
6:39 am67 °FFog.3 mph93%30.03 "Hg0 mi
5:54 am67 °FFog.3 mph97%29.94 "Hg1 mi
5:34 am67 °FFog.5 mph93%30.02 "Hg2 mi
5:06 am68 °FFog.6 mph93%30.02 "Hg1 mi
5:02 am68 °FFog.5 mph93%30.02 "Hg2 mi
4:29 am69 °FLow clouds.No wind90%30.03 "Hg8 mi
3:54 am69 °FLow clouds.No wind90%29.96 "Hg10 mi
2:54 am69 °FLow clouds.No wind90%29.96 "Hg10 mi
1:54 am70 °FLow clouds.6 mph87%29.98 "Hg10 mi
1:24 am69 °FPassing clouds.3 mph90%30.07 "Hg10 mi
1:14 am70 °FPassing clouds.No wind87%30.06 "Hg10 mi
12:54 am71 °FOvercast.No wind84%29.98 "Hg10 mi
12:25 am71 °FOvercast.No wind87%30.08 "Hg10 mi
11:54 pm
Sun, Jun 23
71 °FOvercast.No wind87%30.00 "Hg10 mi
11:24 pm71 °FPassing clouds.No wind87%30.09 "Hg10 mi
10:54 pm71 °FClear.3 mph84%30.01 "Hg10 mi
9:54 pm73 °FClear.3 mph76%29.99 "Hg10 mi
8:54 pm75 °FPassing clouds.3 mph69%29.99 "Hg10 mi
7:54 pm77 °FScattered clouds.7 mph66%30.00 "Hg10 mi
6:54 pm80 °FSunny.8 mph62%29.98 "Hg10 mi
5:54 pm80 °FSunny.No wind60%29.98 "Hg10 mi
4:54 pm78 °FPassing clouds.5 mph69%30.00 "Hg10 mi
3:54 pm76 °FMostly cloudy.13 mph72%30.01 "Hg10 mi
2:54 pm82 °FScattered clouds.9 mph58%30.01 "Hg10 mi
2:31 pm82 °FThundershowers. Passing clouds.3 mph56%30.09 "Hg10 mi
1:54 pm82 °FScattered clouds.6 mph55%30.03 "Hg10 mi
12:54 pm79 °FScattered clouds.7 mph60%30.05 "Hg10 mi
11:54 am78 °FPassing clouds.5 mph64%30.05 "Hg10 mi
Weather by CustomWeather, © 2019

See weather overview